Location: Windsor
(43.2292°N, 89.3015°W)
Time: 20:30:03
(UTC+00:00)

BEESAT 2 - Visible Passes

Search period start: 26 June 2022 00:00
Search period end: 06 July 2022 00:00
Orbit: 485 x 508 km, 64.9° (Epoch: 26 June)

Date Brightness Start Highest point End Pass type
(mag) Time Alt. Az. Time Alt. Az. Time Alt. Az.
26 Jun ? 03:05:29 10° NW 03:09:22 87° WSW 03:11:49 22° SSE visible
27 Jun ? 02:43:39 10° NNW 02:47:32 83° NE 02:50:40 15° SE visible
28 Jun ? 02:21:49 10° NNW 02:25:41 73° NE 02:29:32 10° SE visible
29 Jun ? 03:39:13 10° W 03:40:30 11° WSW 03:41:48 10° SW visible
30 Jun ? 03:16:52 10° W 03:18:41 13° WSW 03:20:30 10° SW visible
01 Jul ? 02:54:38 10° WNW 02:56:50 15° WSW 02:59:02 10° SW visible
02 Jul ? 02:32:28 10° WNW 02:34:58 17° WSW 02:37:28 10° SSW visible
